Flag for Switzerland Weather past 2 weeks in Solothurn, Solothurn, Switzerland

Now
66 °F

Mild.


Feels Like: 66 °F
Forecast: 38 / 69 °F
Wind: 7 mph from East

Location: Grenchen


UV Index: 3 (Moderate)

Visibility: N/A


Pressure: 30.04 "Hg

Humidity: 53%

Dew point: 48 °F

Location of SolothurnLocation

Historic Weather in Solothurn

°F

Solothurn temperature yesterday

Maximum temperature yesterday: 66 °F (at 6:00 PM)
Minimum temperature yesterday: 44 °F (at 5:00 AM)
Average temperature yesterday: 55 °F

Past Weeks' High & Low Weather Summary

 TemperatureHumidityPressure
High69 °F (Apr 11, 6:00 PM)98% (Apr 19, 2:00 AM)30.37 "Hg (Apr 19, 2:00 AM)
Low31 °F (Apr 16, 7:00 AM)27% (Apr 16, 4:00 PM)29.60 "Hg (Apr 20, 6:00 PM)
Average50 °F67%30.04 "Hg
* Reported Apr 8 12:00 Noon — Apr 23 12:00 Noon, Solothurn, Weather by CustomWeather, © 2014

Note: Actual official high and low records may vary slightly from our data, if they occured in-between our weather recording intervals... More about our weather records

Advertising

Historic Weather Conditions — Data for Previous 24 hours

 ConditionsComfort  
Time TempWeatherWind HumidityBarometerVisibility
12:00 PM
Apr 23
63 °FMild.3 mph61%30.07 "HgN/A
11:00 AM60 °FCool.1 mph63%30.09 "HgN/A
10:00 AM56 °FCool.1 mph78%30.11 "HgN/A
9:00 AM53 °FCool.No wind88%30.11 "HgN/A
8:00 AM50 °FCool.1 mph95%30.12 "HgN/A
7:00 AM49 °FCool.3 mph95%30.11 "HgN/A
6:00 AM47 °FCool.3 mph96%30.11 "HgN/A
5:00 AM49 °FCool.1 mph94%30.09 "HgN/A
4:00 AM50 °FCool.2 mph95%30.09 "HgN/A
3:00 AM53 °FCool.2 mph88%30.07 "HgN/A
2:00 AM53 °FCool.2 mph84%30.06 "HgN/A
1:00 AM51 °FCool.2 mph89%30.06 "HgN/A
12:00 AM51 °FCool.3 mph83%30.04 "HgN/A
11:00 PM
Apr 22
51 °FCool.2 mph76%30.02 "HgN/A
10:00 PM53 °FCool.3 mph75%30.00 "HgN/A
9:00 PM56 °FCool.1 mph65%29.97 "HgN/A
8:00 PM60 °FRefreshingly cool.2 mph53%29.93 "HgN/A
7:00 PM65 °FMild.5 mph42%29.90 "HgN/A
6:00 PM66 °FMild.2 mph45%29.88 "HgN/A
5:00 PM65 °FMild.5 mph47%29.88 "HgN/A
4:00 PM66 °FMild.7 mph45%29.87 "HgN/A
3:00 PM65 °FMild.8 mph48%29.87 "HgN/A
2:00 PM64 °FMild.6 mph53%29.88 "HgN/A
Weather by CustomWeather, © 2014

See weather overview